�������l�o���
Date,Time,MP-1(��Sv/h),MP-2(��Sv/h),MP-3(��Sv/h),MP-4(��Sv/h),MP-5(��Sv/h),MP-6(��Sv/h),MP-7(��Sv/h),MP-8(��Sv/h),����,����(m/s),���J
2018/04/07,00:00,0.861,1.432,0.898,1.676,1.145,0.482,0.850,0.819,�k,4.8,��
2018/04/07,00:10,0.861,1.429,0.899,1.675,1.146,0.484,0.853,0.819,�k,5.6,��
2018/04/07,00:20,0.861,1.430,0.898,1.672,1.145,0.483,0.852,0.819,�k,6.7,��
2018/04/07,00:30,0.861,1.431,0.899,1.673,1.145,0.483,0.852,0.817,�k,5.9,�L
2018/04/07,00:40,0.864,1.432,0.900,1.675,1.146,0.481,0.852,0.817,�k,5.5,�L
2018/04/07,00:50,0.862,1.432,0.898,1.673,1.146,0.483,0.853,0.819,�k,5.5,�L
2018/04/07,01:00,0.860,1.430,0.898,1.674,1.144,0.483,0.852,0.817,�k,5.6,�L
2018/04/07,01:10,0.859,1.432,0.899,1.672,1.143,0.482,0.850,0.819,�k,5.7,�L
2018/04/07,01:20,0.858,1.428,0.897,1.671,1.142,0.483,0.851,0.818,�k,3.6,�L
2018/04/07,01:30,0.857,1.425,0.895,1.668,1.140,0.482,0.850,0.817,�k,4.7,�L
2018/04/07,01:40,0.859,1.425,0.896,1.667,1.142,0.484,0.850,0.818,�k,4.9,�L
2018/04/07,01:50,0.856,1.424,0.896,1.665,1.140,0.483,0.851,0.819,�k�k��,4.7,�L
2018/04/07,02:00,0.858,1.422,0.894,1.663,1.138,0.481,0.852,0.817,�k,5.4,�L
2018/04/07,02:10,0.855,1.421,0.895,1.663,1.136,0.484,0.850,0.816,�k,5.0,�L
2018/04/07,02:20,0.855,1.420,0.893,1.660,1.135,0.482,0.850,0.818,�k,4.5,�L
2018/04/07,02:30,0.856,1.421,0.894,1.662,1.138,0.482,0.850,0.817,�k�k��,5.3,�L
2018/04/07,02:40,0.855,1.420,0.893,1.663,1.138,0.481,0.849,0.815,�k,5.3,�L
2018/04/07,02:50,0.856,1.421,0.896,1.661,1.138,0.482,0.853,0.817,�k,5.9,�L
2018/04/07,03:00,0.857,1.419,0.895,1.662,1.135,0.481,0.850,0.817,�k,5.4,�L
2018/04/07,03:10,0.854,1.420,0.895,1.660,1.137,0.480,0.851,0.818,�k,4.9,�L
2018/04/07,03:20,0.853,1.418,0.894,1.661,1.135,0.482,0.851,0.817,�k,5.5,�L
2018/04/07,03:30,0.853,1.417,0.891,1.659,1.131,0.483,0.849,0.814,�k,4.9,�L
2018/04/07,03:40,0.853,1.415,0.891,1.657,1.131,0.482,0.849,0.815,�k,4.3,�L
2018/04/07,03:50,0.853,1.415,0.891,1.653,1.131,0.481,0.849,0.816,�k,5.3,�L
2018/04/07,04:00,0.854,1.415,0.889,1.654,1.131,0.481,0.850,0.814,�k�k��,5.0,�L
2018/04/07,04:10,0.851,1.416,0.891,1.655,1.134,0.480,0.849,0.814,�k�k��,4.5,�L
2018/04/07,04:20,0.853,1.416,0.890,1.657,1.132,0.481,0.849,0.815,�k�k��,4.4,�L
2018/04/07,04:30,0.850,1.415,0.891,1.653,1.131,0.482,0.848,0.814,�k�k��,4.3,�L
2018/04/07,04:40,0.851,1.414,0.889,1.654,1.133,0.480,0.848,0.815,�k�k��,2.8,�L
2018/04/07,04:50,0.853,1.409,0.891,1.651,1.129,0.479,0.849,0.814,�k�k��,2.8,�L
2018/04/07,05:00,0.848,1.402,0.885,1.645,1.124,0.480,0.848,0.815,�k,2.9,�L
2018/04/07,05:10,0.847,1.403,0.886,1.641,1.125,0.480,0.848,0.815,�k�k��,3.6,�L
2018/04/07,05:20,0.847,1.403,0.886,1.643,1.124,0.482,0.847,0.812,�k�k��,3.4,�L
2018/04/07,05:30,0.850,1.403,0.885,1.641,1.125,0.482,0.846,0.814,�k�k��,3.5,�L
2018/04/07,05:40,0.846,1.398,0.885,1.632,1.122,0.483,0.845,0.812,�k,2.6,�L
2018/04/07,05:50,0.847,1.400,0.886,1.632,1.121,0.483,0.844,0.812,�k�k��,2.8,�L
2018/04/07,06:00,0.847,1.399,0.885,1.636,1.121,0.481,0.846,0.812,�k�k��,2.8,�L
2018/04/07,06:10,0.845,1.399,0.886,1.636,1.121,0.483,0.844,0.811,�k�k��,3.2,�L
2018/04/07,06:20,0.845,1.398,0.883,1.634,1.120,0.480,0.845,0.811,�k�k��,3.5,�L
2018/04/07,06:30,0.847,1.396,0.883,1.634,1.120,0.481,0.845,0.810,�k��,3.5,�L
2018/04/07,06:40,0.845,1.397,0.882,1.633,1.121,0.480,0.846,0.811,�k�k��,3.5,�L
2018/04/07,06:50,0.844,1.398,0.882,1.633,1.120,0.481,0.843,0.812,�k�k��,4.1,�L
2018/04/07,07:00,0.844,1.399,0.883,1.633,1.119,0.481,0.843,0.813,�k��,4.2,�L
2018/04/07,07:10,0.846,1.398,0.881,1.631,1.120,0.480,0.845,0.813,�k��,4.7,�L
2018/04/07,07:20,0.843,1.398,0.880,1.631,1.116,0.480,0.844,0.812,�k��,3.9,�L
2018/04/07,07:30,0.844,1.396,0.879,1.633,1.119,0.480,0.843,0.810,�k�k��,4.3,�L
2018/04/07,07:40,0.843,1.398,0.879,1.632,1.118,0.480,0.846,0.812,�k�k��,3.8,�L
2018/04/07,07:50,0.844,1.396,0.878,1.633,1.118,0.478,0.844,0.809,�k�k��,4.0,�L
2018/04/07,08:00,0.844,1.396,0.882,1.630,1.116,0.479,0.843,0.811,�k�k��,3.7,�L
2018/04/07,08:10,0.844,1.393,0.881,1.630,1.117,0.478,0.845,0.810,�k�k��,3.3,�L
2018/04/07,08:20,0.845,1.396,0.879,1.630,1.118,0.479,0.845,0.812,�k�k��,2.6,�L
2018/04/07,08:30,0.843,1.395,0.877,1.629,1.115,0.478,0.843,0.810,�k�k��,3.0,�L
2018/04/07,08:40,0.842,1.397,0.877,1.629,1.117,0.479,0.842,0.808,�k�k��,3.6,�L
2018/04/07,08:50,0.844,1.395,0.879,1.628,1.117,0.479,0.844,0.810,�k,2.6,�L
2018/04/07,09:00,0.845,1.396,0.877,1.627,1.117,0.477,0.844,0.812,�k�k��,2.8,�L
2018/04/07,09:10,0.842,1.395,0.878,1.631,1.116,0.478,0.843,0.809,�k,2.8,�L
2018/04/07,09:20,0.841,1.395,0.879,1.629,1.116,0.481,0.843,0.809,�k�k��,2.3,�L
2018/04/07,09:30,0.844,1.394,0.878,1.632,1.117,0.478,0.842,0.811,�k�k��,2.9,�L
2018/04/07,09:40,0.842,1.397,0.877,1.628,1.116,0.478,0.844,0.810,�k,2.3,�L
2018/04/07,09:50,0.842,1.397,0.880,1.630,1.118,0.479,0.842,0.811,�k�k��,1.5,�L
2018/04/07,10:00,0.842,1.396,0.877,1.632,1.119,0.478,0.845,0.810,�k�k��,2.3,�L
2018/04/07,10:10,0.842,1.396,0.879,1.633,1.119,0.478,0.845,0.810,�k,1.7,��
2018/04/07,10:20,0.844,1.396,0.879,1.630,1.118,0.478,0.844,0.810,�k,2.0,��
2018/04/07,10:30,0.845,1.395,0.877,1.628,1.118,0.479,0.843,0.811,�k,2.0,��
2018/04/07,10:40,0.842,1.396,0.878,1.631,1.117,0.479,0.843,0.810,�k�k��,1.2,��
2018/04/07,10:50,0.844,1.396,0.877,1.629,1.120,0.480,0.843,0.812,�k��,2.0,�L
2018/04/07,11:00,0.846,1.397,0.877,1.628,1.117,0.478,0.844,0.811,�k�k��,1.5,�L
2018/04/07,11:10,0.844,1.398,0.879,1.629,1.120,0.477,0.843,0.811,�k�k��,2.0,��
2018/04/07,11:20,0.843,1.399,0.880,1.631,1.121,0.479,0.843,0.813,�k�k��,2.6,��
2018/04/07,11:30,0.845,1.402,0.878,1.628,1.120,0.478,0.844,0.811,�k�k��,2.5,��
2018/04/07,11:40,0.844,1.403,0.879,1.630,1.120,0.477,0.843,0.811,�k�k��,2.2,��
2018/04/07,11:50,0.844,1.402,0.878,1.631,1.121,0.478,0.843,0.810,�k,2.6,��
2018/04/07,12:00,0.845,1.406,0.880,1.632,1.122,0.477,0.845,0.811,�k��,2.2,�L
2018/04/07,12:10,0.843,1.402,0.882,1.631,1.123,0.478,0.844,0.812,�k�k��,2.5,��
2018/04/07,12:20,0.844,1.400,0.879,1.632,1.117,0.477,0.844,0.813,�k,1.2,��
2018/04/07,12:30,0.843,1.405,0.881,1.634,1.123,0.478,0.844,0.812,�k�k��,1.9,��
2018/04/07,12:40,0.844,1.400,0.880,1.633,1.121,0.478,0.845,0.811,�k�k��,1.7,��
2018/04/07,12:50,0.845,1.404,0.880,1.633,1.122,0.479,0.844,0.812,�k,1.5,�L
2018/04/07,13:00,0.846,1.403,0.879,1.634,1.123,0.479,0.843,0.811,�k,1.4,�L
2018/04/07,13:10,0.845,1.405,0.881,1.631,1.124,0.476,0.845,0.812,�k�k��,0.8,�L
2018/04/07,13:20,0.846,1.401,0.878,1.632,1.123,0.478,0.845,0.811,-,CALM,�L
2018/04/07,13:30,0.845,1.403,0.879,1.633,1.124,0.477,0.845,0.811,���k��,1.5,�L
2018/04/07,13:40,0.845,1.404,0.880,1.633,1.123,0.479,0.847,0.811,�k�k��,2.6,�L
2018/04/07,13:50,0.845,1.402,0.880,1.633,1.122,0.479,0.846,0.812,�k,2.5,�L
2018/04/07,14:00,0.845,1.404,0.880,1.633,1.122,0.481,0.846,0.813,�k,2.3,�L
2018/04/07,14:10,0.847,1.402,0.878,1.634,1.123,0.479,0.845,0.814,�k�k��,0.9,�L
2018/04/07,14:20,0.846,1.403,0.881,1.630,1.120,0.479,0.846,0.812,�k,0.6,�L
2018/04/07,14:30,0.843,1.399,0.878,1.631,1.118,0.478,0.845,0.812,���k��,0.6,�L
2018/04/07,14:40,0.844,1.397,0.878,1.629,1.117,0.481,0.843,0.811,��,1.2,�L
2018/04/07,14:50,0.844,1.391,0.879,1.628,1.113,0.480,0.842,0.809,��,1.7,�L
2018/04/07,15:00,0.844,1.393,0.880,1.621,1.116,0.480,0.842,0.810,�쐼,1.9,�L
2018/04/07,15:10,0.843,1.392,0.878,1.625,1.116,0.479,0.842,0.810,��,2.2,�L
2018/04/07,15:20,0.843,1.396,0.877,1.623,1.115,0.481,0.843,0.810,���쐼,2.2,�L
2018/04/07,15:30,0.842,1.392,0.880,1.624,1.117,0.483,0.842,0.812,���쐼,1.5,�L
2018/04/07,15:40,0.842,1.394,0.878,1.625,1.116,0.480,0.840,0.811,��,2.9,�L
2018/04/07,15:50,0.844,1.394,0.877,1.627,1.116,0.480,0.842,0.809,���k��,4.9,�L
2018/04/07,16:00,0.841,1.394,0.878,1.624,1.113,0.480,0.843,0.809,���k��,5.6,�L
2018/04/07,16:10,0.841,1.392,0.878,1.624,1.114,0.479,0.844,0.812,���k��,4.2,�L
2018/04/07,16:20,0.842,1.394,0.876,1.625,1.114,0.478,0.843,0.810,�k��,3.7,�L
2018/04/07,16:30,0.842,1.396,0.878,1.624,1.111,0.480,0.843,0.809,�k��,3.6,�L
2018/04/07,16:40,0.840,1.395,0.878,1.624,1.113,0.478,0.845,0.810,�k��,3.1,��
2018/04/07,16:50,0.841,1.393,0.876,1.625,1.114,0.479,0.844,0.809,�k��,3.6,�L
2018/04/07,17:00,0.841,1.392,0.875,1.622,1.112,0.478,0.845,0.811,�k�k��,2.3,�L
2018/04/07,17:10,0.841,1.392,0.875,1.624,1.112,0.477,0.845,0.810,�k�k��,2.6,�L
2018/04/07,17:20,0.841,1.392,0.874,1.623,1.112,0.478,0.843,0.811,�k�k��,3.8,�L
2018/04/07,17:30,0.838,1.394,0.876,1.624,1.113,0.477,0.844,0.809,�k,0.9,�L
2018/04/07,17:40,0.839,1.393,0.876,1.622,1.114,0.478,0.844,0.809,��,3.1,�L
2018/04/07,17:50,0.840,1.393,0.873,1.625,1.111,0.477,0.842,0.810,��,3.1,�L
2018/04/07,18:00,0.839,1.393,0.875,1.623,1.112,0.476,0.845,0.810,��,4.2,�L
2018/04/07,18:10,0.836,1.392,0.875,1.623,1.110,0.476,0.843,0.808,���k��,4.5,�L
2018/04/07,18:20,0.841,1.394,0.874,1.624,1.111,0.477,0.843,0.810,���k��,3.5,�L
2018/04/07,18:30,0.839,1.392,0.874,1.626,1.111,0.476,0.843,0.809,�k��,3.8,�L
2018/04/07,18:40,0.839,1.393,0.875,1.625,1.113,0.477,0.843,0.809,�k��,3.9,�L
2018/04/07,18:50,0.839,1.392,0.874,1.626,1.111,0.477,0.844,0.810,�k��,3.7,�L
2018/04/07,19:00,0.840,1.394,0.875,1.629,1.113,0.476,0.842,0.810,�k��,2.6,�L
2018/04/07,19:10,0.839,1.395,0.874,1.625,1.113,0.478,0.840,0.810,�k��,1.4,�L
2018/04/07,19:20,0.840,1.396,0.878,1.626,1.111,0.476,0.844,0.808,���쐼,1.2,�L
2018/04/07,19:30,0.841,1.394,0.876,1.626,1.114,0.476,0.845,0.807,��,2.0,�L
2018/04/07,19:40,0.838,1.393,0.875,1.625,1.114,0.478,0.844,0.810,���k��,2.0,�L
2018/04/07,19:50,0.840,1.395,0.875,1.626,1.113,0.476,0.844,0.809,���k��,2.3,�L
2018/04/07,20:00,0.840,1.395,0.874,1.624,1.112,0.479,0.843,0.808,���k��,2.2,�L
2018/04/07,20:10,0.837,1.394,0.877,1.626,1.113,0.477,0.844,0.810,�k,1.2,�L
2018/04/07,20:20,0.840,1.392,0.877,1.625,1.113,0.476,0.844,0.810,�k��,1.4,�L
2018/04/07,20:30,0.839,1.392,0.874,1.624,1.114,0.475,0.845,0.809,�k�k��,2.0,�L
2018/04/07,20:40,0.838,1.397,0.876,1.626,1.113,0.478,0.844,0.810,�k�k��,2.6,�L
2018/04/07,20:50,0.837,1.392,0.874,1.625,1.113,0.479,0.845,0.809,�k�k��,4.2,�L
2018/04/07,21:00,0.840,1.395,0.875,1.625,1.112,0.477,0.843,0.809,�k�k��,4.9,��
2018/04/07,21:10,0.837,1.394,0.873,1.625,1.112,0.476,0.844,0.807,�k�k��,4.2,�L
2018/04/07,21:20,0.836,1.396,0.875,1.623,1.111,0.477,0.842,0.808,�k�k��,3.2,��
2018/04/07,21:30,0.839,1.396,0.874,1.627,1.113,0.476,0.840,0.811,�k�k��,2.6,��
2018/04/07,21:40,0.836,1.395,0.874,1.627,1.112,0.477,0.844,0.809,�k�k��,2.9,��
2018/04/07,21:50,0.839,1.393,0.875,1.626,1.112,0.477,0.843,0.809,���k��,1.5,��
2018/04/07,22:00,0.838,1.395,0.874,1.626,1.111,0.477,0.842,0.809,���k��,1.7,��
2018/04/07,22:10,0.839,1.394,0.876,1.626,1.114,0.478,0.843,0.809,�k�k��,0.8,��
2018/04/07,22:20,0.838,1.394,0.874,1.626,1.113,0.477,0.844,0.809,�k,1.4,��
2018/04/07,22:30,0.839,1.394,0.873,1.625,1.113,0.476,0.842,0.809,�k�k��,2.0,��
2018/04/07,22:40,0.839,1.395,0.874,1.626,1.114,0.475,0.842,0.810,�k��,1.2,��
2018/04/07,22:50,0.839,1.397,0.871,1.628,1.113,0.476,0.842,0.811,-,CALM,��
2018/04/07,23:00,0.837,1.392,0.872,1.626,1.112,0.477,0.842,0.808,���쐼,1.2,��
2018/04/07,23:10,0.838,1.396,0.876,1.624,1.113,0.475,0.843,0.809,��,0.8,��
2018/04/07,23:20,0.839,1.395,0.874,1.624,1.112,0.476,0.842,0.811,�k��,0.6,��
2018/04/07,23:30,0.838,1.395,0.872,1.625,1.115,0.477,0.843,0.809,-,CALM,��
2018/04/07,23:40,0.838,1.394,0.875,1.624,1.114,0.476,0.843,0.809,-,CALM,��
2018/04/07,23:50,0.836,1.396,0.877,1.626,1.113,0.475,0.844,0.808,���k��,2.0,��
